Location: Alsip
(41.6689°N, 87.7387°W)
Time: 14:56:05
(UTC+00:00)

Cosmos 1606 - Pass Details

Date: 14 July 2020
Orbit: 504 x 527 km, 82.5° (Epoch: 12 August)

Event Time Altitude Azimuth Distance (km) Brightness Sun altitude
Rises 04:42:57 0° 344° (NNW) 2,672 7.7 -24.4°
Reaches altitude 10° 04:45:11 10° 337° (NNW) 1,778 6.5 -24.6°
Enters shadow 04:48:33 39° 280° (W) 805 3.8 -24.8°
